カタログに戻る

STARLINK-36767

運用中通信SSO
NORAD 67814·PAYLOAD·🇺🇸 United States

打ち上げ Feb 15, 2026 から Vandenberg Space Force Base

Loading…

次のパス (今後24時間)

TLE

最新Source: CelesTrak SupGP

元期: Sep 15, 2026, 02:34 UTC

1 67814C 26032T   26258.10743056 -.00051672  00000+0 -16039-2 0  2589
2 67814  97.2854  84.5609 0001772  92.4394  23.7527 15.33466976    10

AllMySatでSTARLINK-36767をリアルタイム追跡

Download on the App Store